Driggs, ID

12:55 AM MDT on March 30, 2017 (GMT -0600)
Driggs

Weather History for KDIJ - October, 2012

Change the Weather History Date:

Tuesday, October 9, 2012

  Actual Average (KJAC) Record (KJAC)
Temperature  
Mean Temperature 43 °F -  
Max Temperature 59 °F 56 °F 74 °F (1965)
Min Temperature 27 °F 24 °F 11 °F (1968)
Degree Days  
Heating Degree Days 22    
Moisture  
Dew Point 16 °F    
Average Humidity 38    
Maximum Humidity 57    
Minimum Humidity 23    
Precipitation  
Precipitation 0.00 in - - ()
Sea Level Pressure  
Sea Level Pressure 30.00 in    
Wind  
Wind Speed 5 mph (ESE)    
Max Wind Speed 10 mph    
Max Gust Speed -    
Visibility 10 miles    
Events      
Averages and records for this station are not official NWS values.
T = Trace of Precipitation, MM = Missing Value Source: NWS Daily Summary

Daily Weather History Graph

Daily Weather History Graph

Search for Another Location

Airport or City:

Trip Planner

Search our weather history database for the weather conditions in past years. The results will help you decide how hot, cold, wet, or windy it might be!

Date:

Astronomy

Oct. 09, 2012 Rise Set
Actual Time 7:32 AM MDT 6:50 PM MDT
Civil Twilight 7:03 AM MDT 7:18 PM MDT
Nautical Twilight 6:30 AM MDT 7:52 PM MDT
Astronomical Twilight 5:56 AM MDT 8:25 PM MDT
Moon 1:00 AM MDT (10/9) 3:29 PM MDT (10/9)
Length of Visible Light 12h 15m
Length of Day
11h 18m
Last Quarter, 36% of the Moon is Illuminated
Oct 9
Last Quarter
Oct 15
New
Oct 21
First Quarter
Oct 29
Full
Nov 6
Last Quarter

Hourly Weather History & Observations

Time (MDT) Temp. Windchill Dew Point Humidity Pressure Visibility Wind Dir Wind Speed Gust Speed Precip Events Conditions
12:56 AM 38.8 °F 33.8 °F 10.0 °F 31% 29.87 in 10.0 mi ESE 6.9 mph - N/A   Clear
1:56 AM 36.0 °F 30.3 °F 10.0 °F 34% 29.88 in 10.0 mi SE 6.9 mph - N/A   Clear
2:56 AM 29.1 °F 24.1 °F 9.1 °F 43% 29.91 in 10.0 mi ESE 4.6 mph - N/A   Clear
3:56 AM 28.0 °F 24.2 °F 11.1 °F 49% 29.92 in 10.0 mi NE 3.5 mph - N/A   Clear
4:56 AM 31.1 °F 26.4 °F 11.1 °F 43% 29.93 in 10.0 mi South 4.6 mph - N/A   Clear
5:56 AM 28.0 °F 22.8 °F 10.0 °F 47% 29.96 in 10.0 mi ESE 4.6 mph - N/A   Clear
6:56 AM 27.1 °F 20.7 °F 11.1 °F 51% 30.00 in 10.0 mi East 5.8 mph - N/A   Clear
7:56 AM 27.1 °F 21.8 °F 11.1 °F 51% 30.04 in 10.0 mi South 4.6 mph - N/A   Clear
8:56 AM 36.9 °F - 14.0 °F 39% 30.04 in 10.0 mi Calm Calm - N/A   Clear
9:56 AM 41.9 °F - 12.0 °F 30% 30.04 in 10.0 mi Calm Calm - N/A   Clear
10:56 AM 48.9 °F - 15.1 °F 26% 30.03 in 10.0 mi Calm Calm - N/A   Clear
11:56 AM - - - N/A% - - North - - N/A   Unknown
12:56 PM - - - N/A% - - North - - N/A   Unknown
1:56 PM 57.9 °F - 21.0 °F 24% 29.98 in 10.0 mi Variable 4.6 mph - N/A   Clear
2:56 PM 57.9 °F - 21.0 °F 24% 29.99 in 10.0 mi NW 6.9 mph - N/A   Clear
3:56 PM 59.0 °F - 21.0 °F 23% 29.99 in 10.0 mi West 5.8 mph - N/A   Clear
4:56 PM 57.9 °F - 20.1 °F 23% 29.98 in 10.0 mi Variable 3.5 mph - N/A   Clear
5:56 PM 56.8 °F - 21.0 °F 25% 30.00 in 10.0 mi Calm Calm - N/A   Clear
6:56 PM 50.0 °F - 21.0 °F 32% 30.04 in 10.0 mi WNW 5.8 mph - N/A   Clear
7:56 PM 41.9 °F 36.9 °F 18.1 °F 38% 30.08 in 10.0 mi East 8.1 mph - N/A   Clear
8:56 PM 41.0 °F 34.7 °F 20.1 °F 43% 30.06 in 10.0 mi East 10.4 mph - N/A   Clear
9:56 PM 38.8 °F - 21.0 °F 49% 30.06 in 10.0 mi Calm Calm - N/A   Clear
10:56 PM 36.0 °F - 19.0 °F 50% 30.05 in 10.0 mi Calm Calm - N/A   Clear
11:56 PM 34.0 °F 28.8 °F 20.1 °F 57% 30.15 in 10.0 mi East 5.8 mph - N/A   Clear